Weather in Kagarmanovo

Russia / Republic of Bashkortostan     53°38′19″N   57°47′13″E
temp.,
°C
wind,
m/s
gust,
m/s
humid.,
%
clouds,
%
prec.,
mm/h
press.,
hPa
HPBL,
m
4 march, thu
thu423:00−7w1197100 1.0 100221
02:00−9sw229796 0.1 100227
05:00−11wsw229794 0.3 100235
08:00−12w2497100 0.1 1003143
11:00−9w3889100 0.3 1004704
14:00−7w51085100 0.1 1004908
17:00−7wsw51190100 0.4 1004725
20:00−9sw51394100 0.5 1004737
5 march, fri
fri523:00−7sw71593100 1.8 10021041
02:00−5sw81793100 2.3 9991246
05:00−3wsw71594100 5.4 10001254
08:00−5wsw71494100 2.8 10021137
11:00−5sw71394100 4.8 1003906
14:00−4sw61394100 1.4 1002923
17:00−4sw61194100 3.0 10021027
20:00−4wsw31097100 1.6 1003743
6 march, sat
sat623:00−8wnw2496100 2.7 1007171
02:00−12w129898 0.1 100921
05:00−16w119586 0.1 101220
08:00−18wsw118826 0.0 101420
11:00−9wsw247813 0.0 1014427
14:00−6w35750 0.0 10141094
17:00−7w35784 0.0 10131038
20:00−13wsw119083 0.0 101321
7 march, sun
sun723:00−13s129491 0.0 101220
02:00−12s1295100 0.0 101026
05:00−13ne1197100 0.4 100820
08:00−12nne1297100 0.5 100773
11:00−9nw1292100 0.9 1007374
14:00−9nw3489100 0.2 1008822
17:00−11nw4590100 0.4 1009758
20:00−19wnw129999 0.1 101220
8 march, mon
mon823:00−22w1110071 0.1 101520
02:00−23ssw22971 0.0 101520
05:00−22s2510030 0.0 101499
08:00−18s41197100 0.1 1012319
11:00−12ssw61493100 0.5 1009649
14:00−9sw71490100 0.8 10081061
17:00−6sw71388100 1.8 10081442
20:00−8sw41294100 0.4 1009724